Southport, FL

7:37 AM CDT on July 30, 2016 (GMT -0500)
Northwest Florida Beaches International

Weather History for KECP - February, 2013

Change the Weather History Date:

Sunday, February 3, 2013

  Actual Average Record
Temperature  
Mean Temperature 54 °F -  
Max Temperature 67 °F - 73 °F (2012)
Min Temperature 41 °F - 31 °F (2015)
Degree Days  
Heating Degree Days 11    
Cooling Degree Days 0    
Growing Degree Days 4 (Base 50)    
Moisture  
Dew Point 39 °F    
Average Humidity 59    
Maximum Humidity 93    
Minimum Humidity 24    
Precipitation  
Precipitation T in - 3.26 in (2016)
Month to date precipitation  
Year to date precipitation  
Sea Level Pressure  
Sea Level Pressure 30.19 in    
Wind  
Wind Speed 4 mph (NW)    
Max Wind Speed 16 mph    
Max Gust Speed 21 mph    
Visibility 10 miles    
Events      
T = Trace of Precipitation, MM = Missing Value Source: NWS Daily Summary

Daily Weather History Graph

Daily Weather History Graph

Search for Another Location

Airport or City:

Trip Planner

Search our weather history database for the weather conditions in past years. The results will help you decide how hot, cold, wet, or windy it might be!

Date:

Astronomy

Feb. 03, 2013 Rise Set
Actual Time 7:32 AM EST 6:21 PM EST
Civil Twilight 7:07 AM EST 6:46 PM EST
Nautical Twilight 6:38 AM EST 7:15 PM EST
Astronomical Twilight 6:10 AM EST 7:43 PM EST
Moon 12:58 AM EST (2/3) 12:01 PM EST (2/3)
Length of Visible Light 11h 39m
Length of Day
10h 49m
Waning Gibbous, 49% of the Moon is Illuminated
Feb 3
Waning Gibbous
Feb 10
New
Feb 17
First Quarter
Feb 25
Full
Mar 4
Last Quarter

Hourly Weather History & Observations

Time (EST) Temp. Windchill Dew Point Humidity Pressure Visibility Wind Dir Wind Speed Gust Speed Precip Events Conditions
12:53 AM 42.1 °F - 39.0 °F 89% 30.21 in 10.0 mi Calm Calm - N/A   Clear
1:53 AM 44.1 °F - 39.9 °F 85% 30.20 in 10.0 mi Calm Calm - N/A   Mostly Cloudy
2:53 AM 46.0 °F - 42.1 °F 86% 30.19 in 10.0 mi Calm Calm - N/A   Mostly Cloudy
3:53 AM 51.1 °F - 46.9 °F 86% 30.22 in 10.0 mi NNW 10.4 mph - N/A   Overcast
4:53 AM 50.0 °F - 46.9 °F 89% 30.21 in 10.0 mi NW 4.6 mph - 0.00 in   Overcast
5:53 AM 48.0 °F - 45.0 °F 89% 30.22 in 10.0 mi NW 4.6 mph - N/A   Clear
6:53 AM 48.0 °F - 45.0 °F 89% 30.23 in 10.0 mi NNW 6.9 mph - N/A   Clear
7:53 AM 46.9 °F - 44.1 °F 90% 30.24 in 10.0 mi North 6.9 mph - N/A   Clear
8:53 AM 50.0 °F - 44.1 °F 80% 30.27 in 10.0 mi North 6.9 mph - N/A   Clear
9:53 AM 55.0 °F - 41.0 °F 59% 30.27 in 10.0 mi North 5.8 mph - N/A   Clear
10:53 AM 59.0 °F - 36.0 °F 42% 30.26 in 10.0 mi North 6.9 mph - N/A   Clear
11:53 AM 63.0 °F - 34.0 °F 34% 30.25 in 10.0 mi NNW 9.2 mph - N/A   Clear
12:53 PM 64.0 °F - 33.1 °F 31% 30.21 in 10.0 mi NNW 6.9 mph - N/A   Clear
1:53 PM 66.0 °F - 30.0 °F 26% 30.18 in 10.0 mi NNW 11.5 mph - N/A   Clear
2:53 PM 66.9 °F - 30.0 °F 25% 30.16 in 10.0 mi West 10.4 mph - N/A   Clear
3:53 PM 66.0 °F - 28.0 °F 24% 30.14 in 10.0 mi WSW 6.9 mph 20.7 mph N/A   Clear
4:28 PM 64.4 °F - 37.4 °F 37% 30.11 in 10.0 mi SSW 12.7 mph - N/A   Clear
4:53 PM 63.0 °F - 37.9 °F 40% 30.14 in 10.0 mi SW 12.7 mph - N/A   Clear
5:53 PM 60.1 °F - 39.0 °F 46% 30.14 in 10.0 mi SW 6.9 mph - N/A   Clear
6:53 PM 53.1 °F - 39.9 °F 61% 30.15 in 10.0 mi SSW 5.8 mph - N/A   Clear
7:53 PM 48.0 °F - 41.0 °F 77% 30.15 in 10.0 mi Calm Calm - N/A   Clear
8:53 PM 45.0 °F - 41.0 °F 86% 30.16 in 10.0 mi Calm Calm - N/A   Clear
9:53 PM 44.1 °F - 41.0 °F 89% 30.17 in 10.0 mi Calm Calm - N/A   Clear
10:53 PM 42.1 °F 40.2 °F 39.0 °F 89% 30.16 in 10.0 mi WNW 3.5 mph - N/A   Clear
11:53 PM 44.1 °F - 39.9 °F 85% 30.16 in 10.0 mi Calm Calm - N/A   Clear